Regional Weather Roundup
Issued by NWS Charleston, SC

Current Version | Previous Version | Text Only | Print | Product List | Glossary Off
Versions: 1 2 3 4 5 6 7 8 9 10 11 12 13 14 15 16 17 18 19 20 21 22 23 24 25 26 27 28 29 30 31 32 33 34 35 36 37 38 39 40 41 42 43 44 45 46 47 48 49 50

000
ASUS42 KCHS 261412
RWRCHS

REGIONAL WEATHER ROUNDUP
NATIONAL WEATHER SERVICE CHARLESTON SC
1000 AM EDT THU MAR 26 2015

NOTE: "FAIR" INDICATES FEW OR NO CLOUDS BELOW 12,000 FEET WITH NO
SIGNIFICANT WEATHER AND/OR OBSTRUCTIONS TO VISIBILITY.

NOT ALL STATIONS ARE QUALITY CONTROLLED BY THE NATIONAL
WEATHER SERVICE. USE DATA WITH CAUTION...ESPECIALLY
DEWPOINT OBSERVATIONS.

SCZ027-030-031-034>040-042>050-261500-
...SOUTHEAST SOUTH CAROLINA...

CITY           SKY/WX    TMP DP  RH WIND       PRES   REMARKS
N CHARLESTON   PTSUNNY   66  61  84 W6        30.03S
WATERFRONT PRK   N/A     64 N/A N/A W7          N/A
MOUNT PLEASANT FAIR      66  61  82 SW9       30.03S
PINOPOLIS        N/A     64  63  94 W7        29.96R
MONCKS CORNER  CLOUDY    64  61  88 W3        30.03S
SUMMERVILLE    NOT AVBL
BEAUFORT MCAS  PTSUNNY   66  63  90 SW7       30.03S
BEAUFORT ARPT  CLOUDY    63  63 100 CALM      30.03S FOG
HILTON HEAD IS PTSUNNY   64  64 100 SW7       30.04F FOG
WALTERBORO     CLOUDY    64  61  88 S5        30.03S
ALLENDALE      CLOUDY    66  63  88 VRB5      30.01S

...SOUTHERN MIDLANDS AND PEE DEE...

CITY           SKY/WX    TMP DP  RH WIND       PRES   REMARKS
GEORGETOWN     NOT AVBL
KINGSTREE      NOT AVBL
ORANGEBURG     CLOUDY    64  60  87 W6        30.01F
BARNWELL       CLOUDY    66  63  88 SW6       30.02S
AIKEN          CLOUDY    64  59  82 SW10      30.03S
MANNING        CLOUDY    63  59  88 SW9       30.01F
COLUMBIA       PTSUNNY   68  60  75 SW10G21   29.98F
SUMTER         CLOUDY    66  60  82 SW12      29.98F
FLORENCE       CLOUDY    65  60  84 W13       29.99R
MYRTLE BEACH   MOSUNNY   68  64  88 SW12      30.01F
N MYRTLE BEACH CLOUDY    66  63  90 SW6       29.99S

$$

GAZ063-065-086>088-099>101-113>116-118-119-134>141-150-261500-
...SOUTHEAST GEORGIA...

CITY           SKY/WX    TMP DP  RH WIND       PRES   REMARKS
SAVANNAH ARPT  CLOUDY    68  60  75 SW9       30.03F
HUNTER AAF     PTSUNNY   65  65 100 SW8       30.02S
FORT STEWART   PTSUNNY   68  61  76 SW8       30.01F
STATESBORO     CLOUDY    66  66 100 W7        30.03R
SYLVANIA       CLOUDY    65  63  91 W6        30.03S
CLAXTON        FAIR      66  63  88 W5        30.03S FOG

...CSRA...CENTRAL AND FAR SOUTHEAST GEORGIA...

CITY           SKY/WX    TMP DP  RH WIND       PRES   REMARKS
THOMSON        CLOUDY    65  65  99 SW3       30.06S
AUGUSTA-BUSH   CLOUDY    66  61  84 SW10      30.00S
AUGUSTA-DANIEL CLOUDY    66  60  81 SW12      30.01S
SWAINSBORO     FAIR      68  59  73 CALM      30.02F
VIDALIA        MOSUNNY   64  63  94 S5        30.02F
EASTMAN        FAIR      64  64 100 S3        30.03F
HAZLEHURST     FAIR      66  64  94 CALM      30.01F
ALMA           MOSUNNY   65  62  90 CALM      30.01F
WAYCROSS       PTSUNNY   70  67  90 S6        30.02F
JESUP          FAIR      68  64  88 SW5       30.04F
BAXLEY         FAIR      64  63  94 S5        30.02F
BRUNSWICK      CLOUDY    63  61  94 SW5       30.05F
SAINT SIMONS   PTSUNNY   66  64  93 SW7       30.04F

$$

SCZ027-028-034-036>038-045-046-048>050-GAZ119-141-261500-
...LAKE AND SUPPLEMENTAL COASTAL OBSERVATIONS...

STATION/POSITION TIME  TEMP    WIND        PRES    WAVE   SWELL
                       AIR SEA DIR/SP/G            HT/PER HT/PER/DIR
                 (UTC) (F)     (DEG/KT/KT) (MB)    (FT/S) (FT/S/D)
UPR LAKE MARION  NOT AVBL
WINYAH BAY       NOT AVBL
LAKE MURRAY      1300   63     220/  6/  9 1015.2S
ACE BASIN NERRS  NOT AVBL
FORT PULASKI     1300   60 62  200/  3/  4 1017.7
SAPELO ISLAND    1300   62     220/  6     1017.0S

$$

ANZ835-935-AMZ111-154-330-350-352-354-370-450-454-472-261500-
...C-MAN AND BUOY OBSERVATIONS...

STATION/POSITION TIME  TEMP    WIND        PRES    WAVE   SWELL
                       AIR SEA DIR/SP/G            HT/PER HT/PER/DIR
                 (UTC) (F)     (DEG/KT/KT) (MB)    (FT/S) (FT/S/D)
BUOY 41004       1350   67 70  240/ 14/ 17 1016.4R   6/ 8   5/ 8
BUOY 41008       1350   60 60  220/  6/  6 1017.4F   3/ 9   3/ 70/ 9
FOLLY BEACH CMAN 1400   62     190/  5/  7 1016.9R
CAPERS NEARSHORE 1300   60     240/  6/  8   N/A
FRIPP NEARSHORE  1300   59     220/  4/  4 1017.0R


STATION/POSITION TIME  TEMP    WIND        PRES    WAVE   SWELL
                       AIR SEA DIR/SP/G            HT/PER HT/PER/DIR
                 (UTC) (F)     (DEG/KT/KT) (MB)    (FT/S) (FT/S/D)
5E ST. MARYS GA  1321      62                N/A     3/ 7
FRYING PAN BUOY  1350   70 69  250/ 19/ 25 1015.6R   9/ 8   5/130/ 8
BUOY 41025       NOT AVBL
CAPE LOOKOUT NC  1400   66     150/ 20/ 21 1015.7F
BUOY 41002       1350   70 69  170/ 21/ 25 1020.5F   6/ 7
BUOY 41010       1320   76 76  170/ 12/ 14 1018.8R
ST AUGUSTINE FL  1400   63 64  150/  3/  3 1018.4F


$$



USA.gov is the U.S. government's official web portal to all federal, state and local government web resources and services.